DEMI (45916 NORAD) Tracking and Keplerian Element Data

This shows tracking and keplerian element data for the satellite.

Feedback or suggestion? Click here.




ElementValue
Catalog45916
NameDEMI
Epoch Orbit459
Epoch Day224.86239438
Epoch Year2020
RAAN72.7565
Inclination51.6428
Eccentricity0.0002397
Argument of Perigee141.9616
Mean Anonmoly218.1543
Mean Motion15.50308038
Decay Rate5.96E-05
L11 45916U 98067RP 20224.86239438 .00005960 00000-0 11113-3 0 9998
L22 45916 51.6428 72.7565 0002397 141.9616 218.1543 15.50308038 4599

Live tracking and technical data element details for DEMI (NORAD 45916). DEMI can be tracked NOW for your location showing map with azimuth and elevation plus other details from your city location.

Track the satellite on the map from your city or location and see movement details for azimuth, elevation, latitude, longitude, range, height, and movement on the map or in text.







IsCatalogInMostPopularTable: catalog: 45916, numindb: 2
Update: records affected: 1



GetName: 45916 DEMI

Hit Count: updated at: Fri, 14 Aug 2020 05:28:03 GMT